Location: Edemissen
(51.7689°N, 9.8634°E)
Time: 20:48:06
(UTC+00:00)

Cosmos 2297 Rocket - Visible Passes

Search period start: 19 September 2024 00:00
Search period end: 29 September 2024 00:00
Orbit: 837 x 844 km, 71.0° (Epoch: 18 September)

Date Brightness Start Highest point End Pass type
(mag) Time Alt. Az. Time Alt. Az. Time Alt. Az.
19 Sep 3.1 03:06:24 10° S 03:11:48 48° ESE 03:17:13 10° NE visible
20 Sep 3.1 02:51:46 13° S 02:56:28 45° ESE 03:01:51 10° NE visible
21 Sep 3.2 02:37:27 19° S 02:41:09 43° ESE 02:46:29 10° NE visible
21 Sep 2.7 04:19:51 10° WSW 04:25:14 43° NW 04:30:39 10° NNE visible
22 Sep 3.2 02:23:02 25° SSE 02:25:50 41° ESE 02:31:07 10° NE visible
22 Sep 2.7 04:04:52 12° WSW 04:09:52 44° NW 04:15:19 10° NNE visible
23 Sep 3.2 02:08:33 30° SSE 02:10:30 39° ESE 02:15:45 10° NE visible
23 Sep 2.6 03:50:23 17° WSW 03:54:30 46° NW 03:59:59 10° NNE visible
24 Sep 3.2 01:54:01 34° SE 01:55:11 37° ESE 02:00:22 10° NE visible
24 Sep 2.6 03:35:51 23° WSW 03:39:07 48° NW 03:44:39 10° NNE visible
25 Sep 3.3 01:39:25 35° ESE 01:39:52 36° ESE 01:44:59 10° NE visible
25 Sep 2.5 03:21:14 30° WSW 03:23:46 50° NW 03:29:18 10° NNE visible
26 Sep 3.4 01:24:46 34° ESE 01:24:46 34° ESE 01:29:37 10° NE visible
26 Sep 2.5 03:06:35 38° WSW 03:08:25 52° NW 03:13:58 10° NNE visible
27 Sep 3.6 01:10:05 31° E 01:10:05 31° E 01:14:14 10° NE visible
27 Sep 2.4 02:51:53 46° W 02:53:03 54° NW 02:58:38 10° NNE visible
27 Sep 3.9 04:34:38 10° WNW 04:38:24 18° NNW 04:42:12 10° NNE visible
28 Sep 3.8 00:55:21 27° E 00:55:21 27° E 00:58:50 10° NE visible
28 Sep 2.3 02:37:09 54° WNW 02:37:41 57° NW 02:43:18 10° NNE visible
28 Sep 3.9 04:19:09 10° WNW 04:23:00 18° NNW 04:26:52 10° NNE visible
